Zurück zum Katalog

OPS 4682 DEB

AktivPO
NORAD 38412·DEBRIS·🇺🇸 United States

Gestartet Apr 3, 1965 von Vandenberg Space Force Base

Loading…

Nächste Überflüge (nächste 24 Stunden)

TLE

AktuellSource: Space-Track

Epoche: Sep 14, 2026, 01:59 UTC

1 38412U 65027DR  26257.08319882  .00000023  00000-0  57187-4 0  9996
2 38412  90.2424   5.0863 0030716  27.1348 333.1368 12.94864547642161

Verfolge OPS 4682 DEB in Echtzeit mit AllMySat

Download on the App Store